Vertical_Velocity
-6 2 -1 -2 -2 -0 -1 -1 -1 -1 -1 -1 -3 -2 -0 -0 1 3 4 6 4 4 5 4 5 5 8 7 5 -4 -1 13 -1 -2 -11 2 0 4 -16 -18 -15 -15 -15
-6 -1 -2 -0 -2 -1 -1 -1 -1 -1 -2 -1 -1 -2 -7 -5 -4 2 4 3 5 8 7 -1 6 3 8 11 6 5 -1 3 1 -1 -2 -1 1 -8 2 4 10 1 1
-7 -1 -0 -1 -3 -1 -1 -2 -1 0 -1 -1 -1 -1 -1 -1 3 -1 -4 1 1 -0 -0 2 5 4 6 2 5 3 7 5 5 3 5 4 0 -1 0 -3 -2 -6 1
-4 -3 -2 -2 -2 -2 -2 -2 -3 -0 -1 -1 -2 -1 -1 1 1 1 3 3 1 -0 0 1 3 3 4 3 3 6 3 4 4 2 1 -1 2 4 3 5 4 3 -5
-2 -5 -2 -1 -1 -2 -2 -2 -2 -2 -2 -2 -1 -1 1 -0 -0 0 0 2 2 -0 -0 -4 -3 -1 3 2 2 2 2 2 2 1 -5 -6 -0 0 -0 1 3 5 5
-3 -3 -3 -0 1 -2 -2 -4 -1 -2 -1 -3 -2 -2 -2 -0 1 1 2 -0 -1 2 -1 1 0 1 2 1 3 0 3 2 3 3 2 -1 2 -2 -1 -3 -3 4 3
-4 -3 -2 -1 1 -0 -2 -2 -4 -5 -3 -2 0 1 -1 -2 -1 -1 2 1 2 1 0 2 3 4 2 -4 -2 3 4 3 0 -3 -1 -3 -2 -1 1 -1 -3 -2 -0
-3 -1 -1 -0 -1 -3 -0 -0 -1 -5 -6 -4 -4 -5 -2 -1 -5 -5 -1 -1 -2 -1 2 -0 -0 -0 1 3 0 1 1 -1 -1 2 2 -1 2 3 2 2 1 4 5
-2 -2 0 0 -0 -3 -1 -1 -2 -2 -2 -3 -2 -1 2 3 3 0 2 1 0 2 0 -0 1 1 -1 -1 -1 3 -0 -3 -5 -2 -5 -6 -3 -5 -2 -4 1 3 0
-1 -1 -2 0 -1 -2 -3 -2 -3 -3 -4 -3 -2 -2 -0 1 2 2 1 2 2 -0 1 2 0 1 2 2 -0 -2 -2 -4 -4 0 -2 -1 -1 4 -2 -4 -8 -6 -6
-3 -3 -0 -0 -2 -1 -4 -2 -2 -1 -2 -1 -1 -1 -1 -1 -1 -1 0 -0 1 1 2 1 0 1 -0 -2 -2 -2 -2 -5 -4 -4 -5 -3 -4 -3 -2 -2 -4 -1 -0
-2 -1 -1 -1 -3 -2 -3 -2 -1 -2 -1 -1 1 2 1 1 0 -0 -0 -1 1 2 2 1 2 2 2 1 1 -1 -2 -1 -1 2 2 0 3 4 2 2 -0 -0 1
-3 -1 -1 -0 -3 -1 -2 -1 -1 -1 -0 -2 -2 -1 0 -1 1 2 -1 -1 0 -1 -3 -3 -2 -1 -1 0 0 -1 -2 -0 1 0 -1 -2 2 1 -0 -0 -1 -2 2
-3 -2 -1 -1 -2 -0 -2 -2 -1 -0 -3 -2 -0 -2 -3 -2 1 0 -0 1 1 -0 -0 -2 -3 -2 -1 -1 0 1 -0 -1 -1 -0 1 1 -2 -1 -1 -2 1 1 0
-2 -1 -0 -2 -0 0 -2 -1 -1 -2 -5 -2 -3 -4 -0 0 -7 -9 -5 -2 -2 -3 -2 -0 2 2 -0 -1 -2 -2 -2 -2 -1 -1 -1 -0 -0 -1 -0 -2 -5 -3 -0
-1 1 1 -3 -2 -2 -1 -2 -2 -3 -3 -4 -4 -3 -4 -4 -2 -1 -2 -1 -2 -2 -2 -0 -2 -2 -0 1 1 0 -0 -1 -1 -0 0 -0 -1 -0 -1 -2 1 -0 -3
-1 -0 -1 -1 -3 -2 -1 -3 -0 -2 -2 -3 -3 -2 -2 -3 1 1 -1 -1 -1 2 3 -0 -2 -2 -2 -2 -1 0 1 0 0 -0 -0 -0 -0 -1 -2 -2 -1 -0 -1
0 -1 -0 -2 -2 -2 -1 -1 -1 -1 -2 -2 -2 -1 -2 0 0 -1 2 -1 4 4 -1 -1 -1 -0 -0 -0 -1 -1 -2 -1 -0 1 1 -1 -2 -2 -1 -1 -1 -1 -1
0 -1 -1 -1 -2 -1 -2 -1 -1 -3 -3 -3 -2 -1 -1 -0 -3 1 -0 -0 -2 -2 -1 -1 -2 -1 -0 0 0 -0 0 -0 -1 -1 -1 -0 -0 0 0 0 -0 -1 -1
0 -0 -1 -2 -1 -2 -1 -1 -1 -2 -2 -0 0 -1 -1 5 4 -1 -1 -2 -1 -1 -1 -0 -0 -1 -1 -1 -1 -0 0 1 1 1 1 0 0 1 1 0 1 1 0
-1 -1 -1 -2 -1 -1 -1 -1 -3 -2 -2 -2 -2 -3 -2 -3 -3 -2 -2 0 0 -1 0 0 2 1 -0 -0 2 1 1 1 1 2 0 0 1 1 0 1 1 0 0
-1 -0 -2 -2 -0 -1 -1 -2 -3 -2 -2 -1 -2 -2 -1 -2 -1 -1 -2 -1 -2 -2 -2 -1 0 -0 1 3 2 1 1 1 1 1 1 1 1 1 1 2 2 3 0
-1 -1 -2 -1 -1 -1 -2 -3 -3 -2 -1 -2 -2 -1 -1 -1 -1 -2 -2 -1 -1 -0 -1 0 1 1 1 2 1 1 1 1 1 1 -0 1 2 1 1 1 1 0 -0
-1 -2 -1 -0 -1 -2 -3 -3 -2 -2 -2 -2 -2 -2 -1 -1 -1 -2 -2 -2 -2 -1 -0 -0 -1 -1 0 1 0 0 0 0 1 0 1 2 1 1 1 1 1 2 3
-1 -1 0 -1 -1 -2 -3 -1 -1 -1 -1 -2 -2 -2 -2 -2 -2 -1 -2 -2 -2 -1 -0 -1 0 -0 1 -0 0 -0 -1 1 1 -1 0 -1 -1 -0 -1 -1 -1 -0 -1
-1 -1 -0 -0 -0 -2 -2 -2 -1 -1 -1 -1 -1 -1 -1 -2 -2 -1 -1 -1 -1 -2 -1 0 -1 -0 1 1 1 0 -0 0 1 -0 1 1 1 -0 -1 -1 -1 -1 -1
Height
3064 3055 3046 3038 3031 3022 3014 3006 2998 2990 2983 2975 2968 2960 2953 2945 2937 2930 2924 2920 2917 2913 2911 2910 2906 2906 2908 2911 2913 2919 2923 2925 2929 2932 2935 2939 2943 2945 2949 2956 2962 2966 2972
3060 3052 3044 3036 3029 3022 3014 3006 2998 2990 2983 2976 2969 2961 2954 2945 2937 2931 2925 2918 2914 2912 2910 2908 2905 2904 2905 2907 2909 2911 2916 2918 2920 2923 2928 2931 2935 2939 2942 2946 2952 2959 2965
3057 3050 3043 3035 3029 3021 3013 3006 2998 2991 2984 2978 2970 2962 2955 2949 2941 2934 2926 2922 2916 2911 2910 2909 2906 2904 2904 2905 2906 2908 2908 2910 2913 2916 2919 2921 2924 2928 2932 2936 2942 2946 2953
3055 3049 3042 3035 3027 3020 3013 3006 2998 2991 2985 2978 2971 2965 2957 2951 2944 2938 2931 2925 2919 2915 2911 2910 2907 2905 2904 2904 2904 2904 2905 2906 2907 2909 2911 2914 2917 2920 2923 2928 2931 2936 2941
3055 3049 3042 3034 3027 3020 3014 3006 2999 2993 2986 2980 2973 2967 2960 2954 2946 2940 2934 2928 2924 2920 2916 2911 2908 2906 2904 2904 2903 2903 2904 2905 2905 2905 2907 2910 2911 2913 2916 2919 2922 2927 2931
3055 3047 3041 3034 3028 3021 3014 3009 3002 2995 2988 2982 2976 2970 2963 2956 2949 2941 2935 2931 2926 2923 2919 2915 2912 2909 2907 2905 2903 2903 2903 2904 2903 2903 2904 2907 2908 2910 2912 2914 2918 2921 2923
3054 3046 3040 3034 3028 3021 3015 3010 3004 2997 2991 2984 2977 2970 2965 2959 2952 2946 2941 2934 2929 2925 2921 2918 2915 2913 2910 2907 2906 2904 2903 2903 2903 2904 2904 2906 2907 2908 2910 2911 2914 2916 2918
3054 3047 3041 3035 3028 3023 3017 3012 3006 2999 2993 2987 2982 2976 2970 2963 2957 2950 2943 2936 2932 2928 2924 2921 2917 2914 2912 2909 2907 2906 2904 2903 2903 2903 2903 2905 2906 2907 2907 2908 2909 2911 2912
3054 3048 3041 3036 3031 3024 3018 3012 3007 3001 2996 2990 2984 2979 2972 2967 2961 2955 2949 2942 2936 2931 2927 2923 2919 2917 2914 2911 2908 2907 2907 2905 2904 2903 2904 2904 2903 2903 2904 2905 2905 2906 2908
3055 3049 3042 3037 3032 3026 3019 3013 3006 3001 2996 2992 2987 2982 2977 2971 2966 2960 2953 2947 2942 2936 2931 2927 2924 2921 2918 2914 2911 2909 2908 2907 2906 2905 2904 2904 2904 2903 2904 2904 2904 2905 2905
3054 3049 3043 3038 3032 3027 3021 3015 3009 3004 2999 2995 2990 2984 2979 2973 2968 2963 2957 2952 2947 2942 2937 2932 2928 2925 2922 2919 2916 2914 2912 2910 2909 2907 2907 2906 2905 2905 2904 2905 2905 2905 2906
3055 3050 3044 3040 3034 3029 3023 3018 3012 3007 3003 2999 2994 2989 2983 2977 2970 2965 2960 2954 2950 2945 2940 2936 2932 2928 2925 2921 2918 2916 2914 2912 2911 2909 2907 2907 2906 2905 2904 2903 2903 2903 2904
3056 3051 3046 3041 3037 3031 3026 3021 3016 3010 3005 3001 2996 2991 2986 2980 2974 2968 2963 2957 2952 2947 2942 2938 2933 2930 2926 2922 2920 2917 2916 2913 2911 2910 2908 2907 2906 2904 2904 2904 2904 2904 2904
3057 3053 3048 3044 3039 3034 3028 3023 3018 3012 3008 3003 2998 2993 2988 2982 2976 2970 2965 2960 2955 2949 2945 2940 2936 2931 2927 2924 2921 2918 2916 2914 2912 2911 2910 2908 2907 2906 2905 2904 2904 2904 2903
3058 3054 3050 3046 3042 3035 3030 3025 3018 3013 3009 3003 2999 2994 2990 2984 2978 2972 2966 2961 2956 2952 2947 2942 2938 2933 2929 2925 2921 2918 2916 2914 2913 2911 2909 2907 2906 2905 2905 2904 2903 2903 2902
3059 3056 3052 3048 3043 3037 3031 3025 3019 3014 3009 3005 3001 2996 2991 2986 2981 2976 2970 2965 2961 2955 2950 2944 2939 2934 2929 2925 2922 2919 2917 2915 2913 2911 2909 2907 2906 2905 2903 2903 2902 2901 2900
3060 3057 3054 3050 3045 3038 3032 3026 3021 3016 3012 3008 3004 3000 2995 2990 2986 2980 2974 2969 2964 2959 2953 2947 2941 2936 2931 2926 2923 2919 2917 2915 2913 2911 2909 2907 2906 2904 2903 2902 2900 2899 2898
3062 3059 3056 3052 3046 3040 3035 3029 3025 3020 3015 3011 3007 3003 2998 2994 2989 2984 2978 2973 2969 2961 2954 2948 2942 2937 2933 2929 2925 2922 2919 2916 2914 2912 2910 2908 2906 2904 2902 2901 2899 2898 2896
3063 3061 3058 3054 3049 3043 3037 3032 3028 3023 3019 3014 3010 3006 3001 2997 2992 2987 2982 2975 2968 2963 2957 2951 2945 2940 2935 2931 2927 2924 2922 2919 2917 2914 2912 2909 2907 2905 2903 2900 2898 2897 2895
3065 3063 3060 3056 3051 3045 3040 3036 3031 3027 3023 3018 3013 3008 3004 3001 2995 2989 2984 2978 2973 2967 2961 2955 2949 2943 2939 2934 2931 2928 2925 2922 2920 2917 2914 2911 2909 2906 2904 2901 2898 2895 2892
3067 3064 3062 3058 3053 3048 3043 3039 3034 3029 3025 3019 3014 3009 3006 3001 2997 2992 2987 2982 2977 2971 2965 2959 2953 2948 2943 2940 2936 2933 2929 2926 2923 2920 2916 2912 2909 2906 2903 2900 2897 2895 2892
3069 3066 3064 3060 3055 3051 3047 3042 3037 3032 3028 3023 3018 3014 3009 3004 3000 2995 2990 2985 2980 2975 2970 2964 2959 2952 2948 2944 2941 2937 2934 2930 2926 2922 2918 2914 2911 2907 2905 2902 2899 2897 2893
3070 3068 3066 3062 3058 3054 3050 3046 3041 3036 3031 3026 3022 3018 3013 3008 3003 2998 2993 2988 2984 2979 2974 2970 2964 2958 2953 2948 2944 2940 2937 2933 2929 2925 2921 2917 2914 2911 2908 2905 2902 2899 2895
3072 3070 3068 3064 3061 3057 3054 3049 3044 3039 3035 3030 3025 3021 3016 3011 3006 3001 2997 2992 2987 2983 2978 2974 2968 2963 2958 2953 2948 2944 2940 2937 2933 2929 2925 2921 2917 2914 2911 2907 2904 2900 2896
3074 3072 3070 3067 3064 3060 3057 3053 3048 3044 3039 3034 3029 3024 3019 3014 3009 3005 3000 2996 2991 2987 2982 2978 2973 2968 2963 2957 2952 2948 2944 2940 2937 2933 2930 2926 2922 2918 2914 2910 2906 2902 2898
3075 3074 3072 3069 3066 3063 3059 3056 3052 3048 3043 3038 3034 3029 3024 3018 3014 3009 3004 2999 2995 2991 2986 2982 2977 2972 2968 2963 2958 2953 2948 2944 2941 2937 2934 2930 2926 2922 2918 2914 2909 2905 2901